Regional Weather Roundup
Issued by NWS Charleston, SC

Current Version | Previous Version | Graphics & Text | Print | Product List | Glossary On
Versions: 1 2 3 4 5 6 7 8 9 10 11 12 13 14 15 16 17 18 19 20 21 22 23 24 25 26 27 28 29 30 31 32 33 34 35 36 37 38 39 40 41 42 43 44 45 46 47 48 49 50
000 ASUS42 KCHS 210110 RWRCHS REGIONAL WEATHER ROUNDUP NATIONAL WEATHER SERVICE CHARLESTON SC 900 PM EDT SAT SEP 20 2014 NOTE: "FAIR" INDICATES FEW OR NO CLOUDS BELOW 12,000 FEET WITH NO SIGNIFICANT WEATHER AND/OR OBSTRUCTIONS TO VISIBILITY. NOT ALL STATIONS ARE QUALITY CONTROLLED BY THE NATIONAL WEATHER SERVICE. USE DATA WITH CAUTION...ESPECIALLY DEWPOINT OBSERVATIONS. SCZ027-030-031-034>040-042>050-210200- ...SOUTH CAROLINA... CITY SKY/WX TMP DP RH WIND PRES REMARKS N CHARLESTON CLOUDY 73 64 73 N8 29.95R WATERFRONT PRK NOT AVBL FORT JOHNSON NOT AVBL MOUNT PLEASANT FAIR 72 66 83 N3 29.93S JOHNS ISLAND CLEAR 73 73 100 N12 29.95R PINOPOLIS N/A 75 66 73 N15 29.88S MONCKS CORNER N/A 75 68 78 N8 29.95S SUMMERVILLE FAIR 70 64 83 CALM 29.97S BEAUFORT MCAS CLOUDY 73 65 75 S8 29.96R BEAUFORT ARPT FAIR 72 66 83 N13 29.95R HILTON HEAD IS CLOUDY 73 66 78 N13G20 29.96S GEORGETOWN NOT AVBL WALTERBORO CLOUDY 70 68 94 N3 29.98R ORANGEBURG CLOUDY 72 62 71 VRB3 29.98S BARNWELL FAIR 70 63 78 N5 30.00R AIKEN FAIR 70 63 78 NE3 30.05R MANNING FAIR 72 64 78 N5 29.97S KINGSTREE NOT AVBL COLUMBIA CLOUDY 75 60 59 N5 30.00R SUMTER CLOUDY 73 61 66 N8 29.98R FLORENCE CLOUDY 72 63 73 N8 29.98S MYRTLE BEACH DRIZZLE 73 64 73 N12 29.94R N MYRTLE BEACH LGT RAIN 72 67 84 N7 29.94R $$ GAZ063-065-086>088-099>101-113>116-118-119-134-136>141-150-210200- ...GEORGIA... CITY SKY/WX TMP DP RH WIND PRES REMARKS SAVANNAH ARPT CLOUDY 73 63 70 N8 29.97R HUNTER AAF CLOUDY 72 65 78 N9 29.94R FORT STEWART CLOUDY 72 65 78 N5 29.96R STATESBORO NOT AVBL SYLVANIA CLOUDY 76 70 81 CALM 30.00R CLAXTON FAIR 72 70 94 CALM 29.98S THOMSON PTCLDY 70 68 95 CALM 30.07R AUGUSTA-BUSH MOCLDY 66 62 87 CALM 30.00R AUGUSTA-DANIEL MOCLDY 76 59 55 N3 30.02R SWAINSBORO FAIR 72 68 88 CALM 30.01R VIDALIA PTCLDY 72 64 78 NE3 30.00R ALMA CLEAR 70 64 81 CALM 29.99R WAYCROSS NOT AVBL JESUP FAIR 75 70 83 CALM 29.98R BRUNSWICK PTCLDY 72 66 83 NW5 29.97R SAINT SIMONS PTCLDY 72 67 84 N9 29.95R $$ SCZ027-028-034-036>038-045-046-048>050-GAZ119-141-210200- ...LAKE AND SUPPLEMENTAL COASTAL OBSERVATIONS... STATION/POSITION TIME TEMP WIND PRES WAVE SWELL AIR SEA DIR/SP/G HT/PER HT/PER/DIR (UTC) (F) (DEG/KT/KT) (MB) (FT/S) (FT/S/D) UPR LAKE MARION NOT AVBL WINYAH BAY 0000 72 350/ 6 1013.0S LAKE MURRAY 0000 75 20/ 1/ 3 1015.2S ACE BASIN NERRS 0000 71 330/ 2 1014.0S FORT PULASKI 0100 73 350/ 11/ 13 1014.5R SAPELO ISLAND 0000 75 360/ 12 1014.0S $$ ANZ835-935-AMZ111-154-330-350-352-354-374-450-454-472-210200- ...C-MAN AND BUOY OBSERVATIONS... STATION/POSITION TIME TEMP WIND PRES WAVE SWELL AIR SEA DIR/SP/G HT/PER HT/PER/DIR (UTC) (F) (DEG/KT/KT) (MB) (FT/S) (FT/S/D) FOLLY BEACH CMAN 0000 73 360/ 12/ 15 1013.8F BUOY 41004 0100 77 82 10/ 21/ 25 1010.9R 8/ 7 3/ 8 BUOY 41008 0100 77 83 20/ 19/ 23 1012.9R 6/ 7 2/ 80/ 8 5E ST. MARYS GA 0100 83 N/A 6/ 6 2/100/11 FRYING PAN BUOY NOT AVBL BUOY 41025 0100 77 70/ 17/ 21 1013.7F 7/10 3/ 80/10 CAPE LOOKOUT NC 0000 71 40/ 16/ 17 1013.6F BUOY 41002 NOT AVBL BUOY 41010 0100 80 84 240/ 17/ 19 1010.9R 7/ 6 3/ 10/ 9 BUOY 41012 NOT AVBL ST AUGUSTINE FL 0100 78 360/ 20/ 22 1013.8R CAPERS NEARSHORE NOT AVBL FRIPP NEARSHORE NOT AVBL $$

USA.gov is the U.S. government's official web portal to all federal, state and local government web resources and services.